Location: Erfurt
(50.9830°N, 11.0330°E)
Time: 11:20:21
(UTC+02:00)

ISS - Visible Passes

Search period start: 22 June 2021 00:00
Search period end: 02 July 2021 00:00
Orbit: 417 x 422 km, 51.6° (Epoch: 21 June)

Date Brightness Start Highest point End Pass type
(mag) Time Alt. Az. Time Alt. Az. Time Alt. Az.
29 Jun -1.6 04:16:14 10° S 04:18:23 16° SE 04:20:33 10° E visible
30 Jun -1.2 03:30:16 10° SSE 03:31:09 11° SE 03:32:00 10° ESE visible
01 Jul -2.6 04:16:52 10° SW 04:19:55 32° SSE 04:22:58 10° E visible
